Temperature
21 20 20 20 19 19 19 19 19 19 19 19 19 19 19 19 19 19 19 19 19 19 19 19 19 19 19 19 18 18 19 19 19 19 19 19 18 18 18 18 18 18 18
20 20 20 20 19 19 19 19 19 19 19 19 19 19 19 19 19 19 19 19 19 18 18 18 18 18 18 18 18 18 18 18 18 18 19 18 18 18 18 18 18 18 18
20 20 20 20 19 19 19 19 19 19 19 19 19 19 19 19 19 19 19 19 18 18 18 18 18 18 18 18 18 18 18 18 18 18 18 18 18 18 18 18 18 18 18
20 20 19 20 19 19 19 19 19 19 19 19 19 19 19 19 19 19 19 18 18 18 18 18 18 18 18 18 18 18 18 18 18 18 18 18 18 18 18 18 18 18 18
20 20 19 19 19 19 19 19 19 19 19 19 19 18 18 19 19 18 18 18 18 18 18 18 18 18 18 18 18 18 18 18 18 18 18 18 18 18 18 18 18 18 18
20 20 19 19 19 19 19 19 19 19 19 18 18 18 18 18 18 18 18 18 18 18 18 18 18 18 18 18 18 18 18 18 18 18 18 18 18 18 18 18 18 18 18
20 20 19 19 19 19 19 19 19 19 18 19 18 18 18 18 19 18 18 18 18 19 18 18 18 18 18 18 18 18 18 18 18 18 18 18 18 18 18 18 18 18 18
20 20 19 19 19 19 19 19 19 19 19 19 19 19 19 19 19 18 18 18 18 18 18 18 18 18 18 18 18 18 18 18 18 18 18 18 18 18 18 18 18 18 18
20 20 20 19 19 19 19 19 19 19 19 19 19 19 19 19 19 19 19 18 18 18 18 18 18 18 18 18 18 18 18 18 18 18 18 18 18 18 18 18 18 18 18
20 20 20 19 19 19 19 19 19 19 19 19 19 19 19 19 18 19 18 18 18 18 18 18 18 18 18 18 18 18 18 18 18 18 18 18 18 18 18 18 18 18 18
20 20 19 19 19 19 19 19 19 19 19 19 19 19 18 18 18 18 18 18 18 18 18 18 18 18 18 18 18 18 18 18 18 18 18 18 18 18 18 18 18 18 18
20 20 20 19 19 19 19 19 19 19 19 18 18 18 18 18 18 18 18 18 18 18 18 18 18 18 18 18 18 18 18 18 18 18 18 18 18 18 18 18 18 18 17
20 20 20 19 19 19 19 19 19 19 19 19 19 19 18 18 18 18 18 18 18 18 18 18 18 18 18 18 18 18 18 18 18 18 18 18 18 18 18 18 17 17 17
20 20 19 19 19 19 19 19 19 19 19 19 19 19 18 18 18 18 18 18 18 18 18 18 18 18 18 18 18 18 18 18 18 18 18 18 18 18 18 18 18 18 17
20 20 19 19 19 19 19 19 19 19 19 19 19 18 18 18 18 18 18 18 18 18 18 18 18 18 18 18 18 18 18 18 18 18 18 18 18 18 18 18 18 18 17
20 20 19 19 19 19 19 19 19 19 19 18 18 18 18 18 18 18 18 18 18 18 18 18 18 18 18 18 18 18 18 18 18 18 18 18 18 18 18 18 17 17 17
20 20 19 19 19 19 19 19 19 19 19 18 18 18 18 18 18 18 18 18 18 18 18 18 18 18 18 18 18 18 18 18 18 18 18 18 18 18 18 18 18 17 17
20 20 19 19 19 19 19 19 19 19 18 18 18 18 18 18 18 18 18 18 18 18 18 18 18 18 18 18 18 18 18 18 18 18 18 18 18 17 17 17 17 17 17
20 20 20 19 19 19 19 18 18 18 18 18 18 18 18 18 18 18 18 18 18 18 18 18 18 18 18 18 18 18 18 18 18 18 18 18 17 17 17 17 17 17 17
20 20 20 19 19 19 19 18 18 18 18 18 18 18 18 18 18 18 18 18 17 18 18 18 17 17 18 18 18 18 18 18 18 18 18 18 18 17 17 17 17 17 17
20 20 19 19 19 19 18 18 18 18 18 18 18 18 18 18 18 18 18 17 17 17 17 17 17 17 17 18 18 18 18 18 18 18 18 18 18 17 17 17 17 17 17
20 20 20 19 19 19 19 18 18 18 18 18 18 18 18 18 18 18 18 17 17 17 17 17 17 17 17 17 18 18 19 19 18 18 18 17 17 17 17 17 17 17 17
20 20 20 19 19 19 19 18 18 18 18 18 18 18 18 18 18 18 18 17 17 17 17 17 17 17 17 17 17 18 19 19 18 18 17 17 17 17 17 17 17 16 16
20 20 19 19 19 19 19 18 18 18 18 18 18 18 17 17 17 17 17 17 17 17 17 17 17 17 17 17 17 17 17 17 17 18 18 17 17 17 17 17 17 16 16
20 19 19 19 19 19 19 18 18 18 18 18 17 17 17 17 17 17 17 17 17 17 17 17 17 17 17 17 17 17 17 17 17 17 17 17 17 17 16 16 16 16 16
20 19 19 19 19 19 19 18 18 18 18 18 17 17 17 17 17 17 17 17 17 17 17 17 17 17 17 17 17 17 17 17 17 17 17 17 17 16 16 16 16 16 16
Wind_Speed
2 4 7 4 4 4 4 5 6 7 8 8 9 9 9 9 9 9 9 8 8 9 9 9 9 9 9 8 8 8 8 7 7 8 9 9 9 9 9 10 10 10 11
2 3 7 5 4 4 4 5 5 6 8 8 9 9 9 9 8 8 8 8 8 8 8 8 8 8 8 8 8 8 8 8 8 8 9 10 10 9 9 9 8 6 11
3 3 5 4 4 4 4 4 5 5 7 8 8 8 8 8 8 8 8 7 8 8 8 8 8 8 8 8 8 7 8 8 8 8 9 9 10 11 10 9 8 8 10
3 3 4 5 4 4 4 4 4 5 6 8 8 8 8 8 8 8 7 6 7 7 8 8 7 7 8 8 8 8 8 8 8 9 9 7 7 10 11 10 9 10 10
3 3 5 5 4 4 4 4 4 5 6 8 8 8 8 8 7 7 6 6 6 7 7 7 7 7 7 7 7 8 8 9 9 10 7 6 5 8 9 10 9 10 12
3 4 6 4 3 3 3 3 4 5 6 8 8 8 7 7 6 6 6 6 7 7 6 6 6 6 7 7 7 7 8 9 10 8 7 6 6 8 8 8 8 10 11
3 3 5 5 3 2 2 2 3 6 7 7 7 7 7 7 6 5 5 6 6 6 6 6 6 6 6 7 7 8 8 9 8 6 6 6 6 8 8 8 7 8 10
4 3 4 6 4 2 2 2 4 7 6 6 6 6 5 6 5 5 4 4 5 5 5 5 5 5 5 6 7 8 8 9 8 7 6 7 7 9 9 9 8 8 10
4 3 2 3 5 5 4 4 4 6 6 6 5 5 5 5 5 4 4 4 4 3 3 4 4 4 5 6 7 7 8 9 7 6 7 6 8 10 10 10 9 9 11
4 4 3 4 2 2 4 7 5 6 6 5 5 5 5 6 6 6 5 5 3 3 3 3 4 4 5 5 6 6 8 9 8 7 6 6 9 10 10 10 10 10 11
5 5 4 4 3 2 3 5 6 8 7 5 5 6 5 3 4 5 5 5 3 2 2 2 3 5 7 7 7 7 8 6 5 5 5 6 8 10 10 10 10 10 11
5 5 5 4 4 4 3 3 3 4 5 4 3 3 3 3 2 2 6 5 3 2 2 3 4 7 8 5 7 9 5 5 5 4 5 7 8 9 9 9 10 10 11
4 4 4 4 4 4 4 3 3 3 3 4 4 3 3 2 2 2 2 4 3 3 2 2 4 3 2 2 2 3 3 3 3 3 5 8 8 8 8 9 10 10 11
4 4 4 4 4 4 4 3 3 3 3 3 4 3 2 1 1 1 1 0 1 1 1 1 1 1 1 2 2 2 2 2 2 2 4 6 7 8 8 8 9 9 10
4 4 4 3 3 4 3 2 3 3 3 3 3 3 2 1 1 1 1 1 1 0 1 1 1 0 1 2 2 2 2 2 2 3 4 6 6 7 7 8 9 9 9
3 3 3 3 4 3 3 3 3 2 3 3 3 3 2 2 2 1 1 1 1 1 1 1 1 1 1 1 1 2 2 2 2 3 3 5 7 7 7 7 8 9 9
2 2 3 3 4 4 4 3 3 2 3 3 3 3 3 3 2 1 1 1 1 1 1 1 1 1 1 1 1 1 1 1 1 1 1 2 4 7 7 6 7 8 9
2 3 3 3 5 4 4 3 3 3 3 3 3 3 3 3 2 1 1 1 2 1 1 1 1 1 1 1 0 0 1 1 1 1 1 1 1 2 5 6 6 7 7
3 4 5 4 4 4 4 3 3 3 3 3 3 3 3 3 2 1 2 2 1 1 1 1 1 1 1 1 0 1 1 1 1 1 1 1 1 1 2 6 6 5 6
4 4 5 5 4 4 4 3 3 3 2 2 3 3 3 3 3 2 2 2 2 1 1 1 1 1 1 1 1 1 0 1 0 0 0 1 1 1 2 2 4 5 6
4 4 4 4 4 3 3 2 2 2 2 2 2 3 3 3 2 2 2 2 1 1 1 1 1 0 0 1 1 0 0 1 1 0 0 1 0 1 1 1 1 1 3
5 4 4 4 4 3 3 2 1 1 1 2 2 3 3 2 2 1 1 1 1 1 1 1 1 2 1 1 2 2 1 1 1 0 0 0 1 0 1 1 1 1 2
5 5 4 4 4 3 3 2 2 1 1 2 2 2 2 2 2 2 2 2 2 2 1 2 2 2 2 1 2 2 2 2 1 0 1 1 1 1 1 0 1 1 2
5 5 5 4 4 3 3 3 2 1 1 1 1 1 1 1 1 2 2 2 2 2 2 2 2 3 2 2 1 1 2 2 2 1 1 0 0 1 2 2 1 0 1
6 6 5 5 4 4 3 3 2 2 1 1 1 2 1 2 2 2 2 2 2 2 3 3 3 3 2 3 2 2 2 1 3 3 2 1 1 1 1 2 1 1 0
6 6 6 5 4 4 4 3 2 2 1 1 1 1 0 1 1 2 2 2 2 2 2 2 3 2 2 3 3 2 2 2 2 2 2 2 2 1 1 1 1 1 0
Wind_Direction
98 121 133 168 168 167 165 167 166 167 166 163 161 159 157 156 157 157 158 161 163 166 169 168 167 168 169 169 168 167 166 170 171 169 170 166 167 169 172 176 187 183 169
72 118 142 164 162 163 166 161 166 168 167 166 165 164 163 162 163 163 162 167 169 167 167 167 168 169 173 174 173 173 173 177 178 176 175 175 175 179 180 186 203 177 167
66 108 146 151 162 164 169 163 165 169 168 168 168 166 167 168 169 169 170 170 169 171 171 170 172 174 177 182 180 178 181 183 181 184 192 194 177 177 186 191 193 186 178
61 93 102 126 156 163 167 168 173 171 171 169 169 169 170 169 168 170 171 171 171 177 180 178 176 175 181 183 184 185 186 187 190 196 198 195 183 167 183 189 193 190 188
61 74 94 120 145 160 168 176 182 173 165 163 163 164 163 164 167 168 168 170 175 178 175 177 183 183 183 182 186 192 189 188 199 211 196 194 185 159 177 188 192 193 193
67 74 95 110 128 149 168 181 186 174 158 155 153 152 155 158 159 161 167 168 173 178 181 182 188 194 196 193 191 194 197 199 210 201 195 195 185 162 178 190 195 198 196
69 75 95 105 117 138 159 175 169 165 158 153 153 156 158 158 158 159 163 169 176 182 186 191 195 198 195 194 195 197 199 209 218 206 203 199 183 166 184 195 200 200 196
58 68 97 131 134 128 144 147 143 147 146 149 152 153 160 166 165 164 156 163 169 176 184 192 197 202 199 196 199 203 207 222 211 206 208 205 177 176 190 198 203 206 200
52 45 70 113 138 153 149 135 132 138 138 142 145 150 156 163 165 156 157 150 147 157 173 184 197 198 203 207 211 215 212 222 223 208 211 206 173 185 197 205 208 212 206
47 45 69 84 79 122 142 144 147 142 140 143 147 151 163 175 169 163 163 137 145 158 177 185 193 208 212 212 214 217 213 216 213 207 210 189 177 192 202 210 213 213 209
49 50 61 68 60 69 85 119 151 154 149 161 155 158 179 165 149 159 122 125 129 135 185 201 207 217 219 206 204 208 215 210 196 210 204 171 189 199 210 217 219 217 212
52 55 61 58 54 59 74 96 120 126 119 123 113 127 135 128 145 128 128 141 144 161 183 195 224 223 230 203 190 204 210 200 194 193 174 171 196 205 213 220 222 220 216
64 56 60 70 58 51 67 76 82 87 98 104 98 106 112 113 117 115 132 145 152 179 190 174 219 227 219 206 224 200 190 203 184 182 159 164 193 209 217 222 220 216 213
77 71 61 69 77 64 58 67 75 75 77 79 91 88 88 88 76 79 80 79 174 170 176 231 249 261 246 210 207 196 188 203 195 183 153 159 193 210 222 220 213 210 207
85 79 76 70 72 75 77 63 75 66 63 78 73 85 76 86 74 62 42 16 322 311 209 244 273 317 252 218 216 200 204 192 205 211 170 166 193 205 216 214 209 207 204
93 86 88 96 97 94 90 80 69 65 79 67 68 68 53 49 50 51 48 8 348 330 350 311 321 319 301 253 225 211 222 211 195 210 209 179 183 192 206 210 209 206 203
106 99 107 119 109 105 94 83 72 67 70 63 61 65 51 46 52 49 45 3 5 9 21 345 356 325 294 242 219 200 202 209 201 195 227 217 187 185 194 204 206 203 204
123 116 114 113 113 108 98 86 76 63 63 58 55 63 58 47 47 45 42 28 36 29 17 13 315 294 343 336 175 201 148 139 202 191 200 189 193 176 177 186 198 197 205
131 126 123 118 118 111 106 102 88 80 73 66 66 57 56 47 43 46 51 36 18 27 12 336 23 316 15 8 14 187 193 178 200 197 169 190 164 183 174 151 168 180 195
133 130 128 128 120 124 122 115 100 82 75 70 65 56 48 45 45 23 58 36 360 26 7 3 11 345 320 322 330 8 260 189 184 148 227 182 170 177 179 156 171 179 182
138 134 131 126 122 128 121 117 114 96 76 65 62 55 47 38 41 34 33 44 355 30 359 349 329 169 275 322 288 300 223 178 106 155 260 320 163 146 143 147 218 226 175
149 147 143 137 130 133 125 124 115 94 89 79 62 63 41 39 27 38 28 348 12 5 20 359 333 312 323 307 299 293 264 208 124 51 282 344 343 56 142 176 193 217 267
161 157 146 143 142 138 137 136 122 127 128 91 76 69 45 31 19 10 11 354 348 332 2 333 319 302 299 298 317 301 295 300 323 157 26 35 17 330 285 345 200 195 220
168 158 151 147 147 145 147 138 139 141 117 74 63 60 48 35 23 14 7 357 343 336 342 310 323 301 296 299 296 306 310 315 294 287 266 60 349 296 295 291 286 191 197
168 161 155 152 153 153 155 154 164 153 125 95 78 75 39 56 38 18 5 352 341 334 341 332 324 314 312 312 310 308 300 269 264 262 278 282 258 280 293 292 307 318 135
170 165 158 157 162 164 163 157 166 153 132 95 54 33 19 55 42 29 3 355 334 340 339 320 314 313 318 321 312 305 292 287 281 273 268 267 281 299 328 336 326 322 44
Height
1496 1494 1491 1491 1491 1492 1492 1492 1493 1494 1495 1497 1498 1500 1501 1503 1504 1506 1507 1508 1510 1511 1513 1514 1515 1516 1517 1519 1520 1521 1522 1523 1524 1525 1526 1527 1528 1529 1531 1532 1533 1535 1535
1495 1493 1490 1490 1491 1491 1492 1492 1493 1494 1495 1496 1498 1499 1501 1503 1504 1506 1507 1508 1510 1511 1512 1514 1515 1516 1517 1518 1519 1521 1522 1523 1524 1525 1525 1527 1528 1529 1530 1531 1533 1535 1535
1494 1493 1490 1489 1490 1491 1492 1492 1492 1493 1494 1495 1497 1499 1501 1502 1504 1505 1507 1508 1510 1511 1512 1513 1515 1516 1517 1518 1519 1520 1521 1522 1523 1524 1525 1527 1528 1528 1529 1531 1532 1533 1534
1495 1493 1491 1489 1489 1490 1491 1491 1492 1492 1493 1494 1496 1498 1500 1502 1504 1505 1506 1508 1509 1511 1512 1513 1514 1515 1516 1517 1518 1519 1520 1521 1523 1524 1525 1527 1528 1527 1528 1529 1531 1532 1533
1495 1494 1491 1490 1490 1490 1491 1491 1491 1492 1492 1494 1496 1498 1500 1502 1503 1505 1506 1508 1509 1510 1512 1513 1514 1515 1516 1517 1517 1518 1520 1521 1522 1523 1525 1526 1527 1526 1527 1528 1530 1531 1532
1496 1495 1493 1491 1491 1490 1490 1490 1489 1489 1491 1494 1496 1498 1500 1502 1504 1505 1507 1508 1509 1510 1511 1512 1513 1514 1515 1516 1517 1517 1519 1520 1521 1523 1524 1525 1525 1525 1526 1527 1528 1530 1531
1497 1496 1494 1492 1492 1491 1491 1489 1487 1487 1492 1495 1497 1499 1501 1503 1504 1506 1507 1508 1509 1510 1511 1512 1513 1513 1514 1515 1516 1516 1517 1518 1520 1522 1522 1523 1524 1524 1525 1526 1527 1528 1529
1497 1496 1494 1493 1492 1492 1491 1490 1488 1489 1493 1497 1498 1500 1502 1503 1505 1506 1507 1508 1509 1509 1510 1511 1512 1513 1513 1514 1514 1515 1516 1517 1518 1520 1521 1522 1522 1522 1523 1524 1525 1526 1527
1497 1495 1493 1494 1494 1493 1492 1492 1492 1493 1495 1497 1499 1501 1503 1504 1505 1506 1507 1508 1508 1509 1510 1510 1511 1512 1512 1513 1513 1513 1514 1515 1516 1518 1519 1520 1520 1520 1521 1522 1523 1524 1525
1498 1495 1492 1494 1495 1495 1494 1493 1494 1496 1497 1499 1500 1502 1503 1504 1506 1507 1508 1508 1508 1509 1510 1510 1510 1511 1511 1512 1512 1512 1513 1514 1515 1516 1518 1518 1518 1519 1520 1520 1521 1522 1523
1499 1496 1495 1495 1496 1496 1496 1495 1496 1497 1499 1500 1501 1502 1504 1506 1507 1508 1508 1508 1508 1509 1509 1509 1510 1510 1510 1511 1511 1511 1511 1513 1514 1515 1516 1515 1516 1517 1517 1518 1519 1520 1520
1501 1499 1498 1497 1497 1497 1497 1497 1498 1500 1501 1501 1503 1504 1505 1506 1507 1508 1508 1508 1508 1509 1509 1509 1509 1509 1510 1511 1511 1510 1511 1512 1513 1513 1514 1513 1514 1514 1515 1515 1516 1517 1518
1503 1502 1501 1500 1499 1499 1499 1499 1500 1501 1502 1503 1504 1505 1506 1507 1508 1508 1508 1509 1509 1509 1509 1509 1509 1509 1509 1510 1510 1510 1510 1511 1511 1512 1512 1512 1512 1512 1512 1512 1512 1513 1515
1505 1504 1503 1502 1501 1501 1501 1502 1502 1503 1504 1505 1505 1506 1507 1507 1508 1508 1508 1509 1509 1509 1508 1509 1508 1508 1508 1508 1509 1509 1509 1510 1510 1511 1510 1510 1510 1510 1509 1508 1509 1510 1512
1506 1505 1504 1503 1503 1503 1503 1504 1505 1505 1506 1506 1506 1507 1507 1508 1508 1508 1508 1508 1509 1509 1509 1508 1508 1507 1507 1507 1508 1508 1508 1509 1509 1509 1509 1508 1508 1508 1507 1507 1507 1508 1510
1507 1506 1505 1505 1504 1504 1505 1505 1506 1507 1507 1507 1507 1508 1508 1508 1508 1508 1508 1508 1508 1508 1509 1508 1507 1507 1506 1506 1507 1507 1508 1508 1508 1508 1508 1508 1507 1506 1506 1506 1506 1507 1508
1507 1507 1506 1506 1506 1506 1506 1507 1508 1508 1508 1508 1508 1508 1508 1508 1508 1508 1508 1508 1508 1508 1508 1507 1507 1507 1506 1506 1506 1507 1507 1507 1508 1507 1507 1507 1507 1506 1505 1505 1505 1506 1507
1508 1507 1507 1507 1507 1507 1507 1508 1509 1509 1509 1509 1509 1509 1509 1509 1509 1508 1508 1509 1508 1508 1508 1507 1507 1507 1506 1506 1506 1506 1506 1506 1507 1506 1507 1506 1506 1506 1505 1505 1505 1505 1506
1508 1507 1507 1507 1508 1508 1508 1509 1509 1509 1510 1510 1510 1510 1510 1509 1509 1509 1509 1509 1509 1509 1508 1508 1507 1507 1506 1505 1505 1505 1505 1506 1506 1506 1506 1506 1505 1505 1505 1504 1504 1504 1505
1508 1508 1508 1508 1508 1509 1509 1510 1510 1510 1511 1511 1511 1510 1510 1510 1510 1510 1510 1509 1509 1509 1508 1508 1507 1506 1506 1505 1505 1505 1505 1505 1505 1505 1505 1505 1505 1504 1504 1504 1504 1504 1504
1508 1508 1508 1509 1509 1509 1510 1510 1511 1511 1511 1511 1511 1511 1510 1510 1510 1510 1510 1509 1509 1509 1508 1508 1507 1507 1506 1506 1505 1505 1505 1505 1505 1505 1505 1505 1504 1504 1504 1503 1503 1504 1503
1508 1508 1508 1509 1509 1509 1510 1510 1511 1511 1512 1512 1512 1511 1511 1511 1510 1511 1510 1510 1509 1509 1508 1508 1507 1507 1507 1506 1506 1505 1505 1506 1504 1504 1504 1504 1503 1503 1503 1503 1502 1502 1502
1508 1508 1508 1508 1509 1509 1510 1511 1512 1512 1512 1513 1512 1512 1511 1511 1511 1510 1510 1509 1509 1509 1509 1508 1507 1507 1507 1506 1505 1506 1505 1504 1504 1504 1504 1503 1503 1502 1502 1502 1502 1501 1501
1507 1508 1508 1508 1509 1509 1511 1512 1512 1513 1513 1513 1512 1512 1511 1511 1511 1510 1510 1509 1509 1509 1508 1507 1507 1507 1506 1506 1505 1504 1504 1504 1504 1503 1504 1503 1502 1501 1501 1501 1501 1500 1500
1507 1507 1507 1508 1508 1509 1510 1511 1512 1512 1513 1513 1512 1512 1512 1511 1510 1510 1510 1509 1508 1508 1507 1506 1506 1505 1505 1505 1505 1504 1503 1503 1503 1503 1502 1502 1502 1501 1501 1500 1500 1499 1499
1506 1507 1507 1507 1508 1509 1510 1510 1511 1512 1512 1512 1512 1512 1512 1511 1511 1510 1509 1508 1508 1507 1506 1505 1505 1504 1503 1503 1503 1503 1503 1502 1502 1502 1501 1500 1501 1501 1500 1499 1499 1498 1498